Simultaneous Nadir Overpasses (SNOs) Predictions

Prediction of SNOs between GOES-16 and NOAA-19 Satellite Orbit:

Table of predicted SNOs for the next 14.0 days since TLE Epoch: 3/18/2023
Index Date Time (GOES-16) GOES-16 Lat,Lon NOAA-19 Lat,Lon Distance(km) Time Diff (sec)
1 03/18/2023 13:31:49 0.04, -75.21 0.31, -76.44 139.48 80
2 03/19/2023 13:17:11 0.04, -75.22 -0.38, -73.52 194.29 80
3 03/22/2023 01:40:14 -0.05, -75.23 -0.78, -78.35 356.94 80
4 03/23/2023 01:28:15 -0.05, -75.24 -0.10, -75.44 22.52 80
5 03/24/2023 01:13:37 -0.04, -75.26 0.59, -72.52 312.03 80
6 03/26/2023 13:36:23 0.04, -75.31 0.51, -77.29 226.46 80
7 03/27/2023 13:21:44 0.04, -75.33 -0.19, -74.38 108.50 80
8 03/28/2023 13:09:45 0.04, -75.35 -0.83, -71.45 443.60 80
9 03/30/2023 01:44:48 -0.04, -75.36 -0.92, -79.22 440.58 80
10 03/31/2023 01:32:49 -0.04, -75.38 -0.28, -76.30 105.13 80
11 04/01/2023 01:18:10 -0.04, -75.40 0.43, -73.38 230.61 80
